Weather History for Leipzig Schkeuditz, Germany

Change the Weather History Date:

Friday, February 15, 2013

  Actual Average Record
Temperature  
Mean Temperature 34 °F -  
Max Temperature 39 °F 42 °F 52 °F (2014)
Min Temperature 28 °F 30 °F 21 °F (2003)
Degree Days  
Heating Degree Days 32    
Moisture  
Dew Point 27 °F    
Average Humidity 81    
Maximum Humidity 93    
Minimum Humidity 50    
Precipitation  
Precipitation 0.00 in - - ()
Sea Level Pressure  
Sea Level Pressure 30.08 in    
Wind  
Wind Speed 6 mph ()    
Max Wind Speed 9 mph    
Max Gust Speed -    
Visibility 5.1 miles    
Events      
Averages and records for this station are not official NWS values.
T = Trace of Precipitation, MM = Missing Value Source: Averaged Metar Reports

Daily Weather History Graph

Daily Weather History Graph

Search for Another Location

Airport:

Trip Planner

Search our weather history database for the weather conditions in past years. The results will help you decide how hot, cold, wet, or windy it might be!

Date:

Astronomy

Feb. 15, 2013 Rise Set
Actual Time 7:24 AM CET 5:26 PM CET
Civil Twilight 6:50 AM CET 6:01 PM CET
Nautical Twilight 6:11 AM CET 6:40 PM CET
Astronomical Twilight 5:32 AM CET 7:18 PM CET
Moon 9:07 AM CET (2/15) 11:58 PM CET (2/15)
Length of Visible Light 11h 10m
Length of Day
10h 01m
Waxing Crescent, 28% of the Moon is Illuminated
Feb 15
Waxing Crescent
Feb 17
First Quarter
Feb 25
Full
Mar 4
Last Quarter
Mar 11
New

Hourly Weather History & Observations

Time (CET) Temp. Windchill Dew Point Humidity Pressure Visibility Wind Dir Wind Speed Gust Speed Precip Events Conditions
12:00 AM 29 °F - 26 °F 86% 30.09 in 5 mi ESE 8.9 mph - -   Mostly Cloudy
12:20 AM 28.4 °F 21.2 °F 26.6 °F 93% 30.04 in 4.3 mi ESE 6.9 mph - N/A   Scattered Clouds
12:50 AM 30.2 °F 23.4 °F 26.6 °F 86% 30.04 in 4.3 mi ESE 6.9 mph - N/A   Mostly Cloudy
1:00 AM 29 °F - 27 °F 88% 30.08 in 4 mi ESE 4.5 mph - -   Mist
1:20 AM 30.2 °F 23.4 °F 26.6 °F 86% 30.04 in 4.3 mi ESE 6.9 mph - N/A   Mostly Cloudy
1:50 AM 30.2 °F 22.6 °F 26.6 °F 86% 30.04 in 4.3 mi ESE 8.1 mph - N/A   Mostly Cloudy
2:00 AM 29 °F - 27 °F 88% 30.08 in 4 mi ESE 6.7 mph - -   Mist
2:20 AM 30.2 °F 23.4 °F 26.6 °F 86% 30.04 in 4.3 mi ESE 6.9 mph - N/A   Mostly Cloudy
2:50 AM 30.2 °F 23.4 °F 26.6 °F 86% 30.04 in 4.3 mi ESE 6.9 mph - N/A   Overcast
3:00 AM 29 °F - 27 °F 88% 30.07 in 4 mi East 6.7 mph - -   Mist
3:20 AM 30.2 °F 23.4 °F 26.6 °F 86% 30.01 in 4.3 mi ESE 6.9 mph - N/A   Overcast
3:50 AM 30.2 °F 22.6 °F 26.6 °F 86% 30.01 in 4.3 mi ESE 8.1 mph - N/A   Overcast
4:20 AM 30.2 °F 22.6 °F 26.6 °F 86% 30.01 in 4.3 mi ESE 8.1 mph - N/A   Overcast
4:50 AM 30.2 °F 21.9 °F 26.6 °F 86% 30.01 in 5.0 mi ESE 9.2 mph - N/A   Overcast
5:20 AM 30.2 °F 23.4 °F 26.6 °F 86% 30.01 in 5.0 mi East 6.9 mph - N/A   Overcast
5:50 AM 30.2 °F 23.4 °F 26.6 °F 86% 30.01 in 5.0 mi ESE 6.9 mph - N/A   Overcast
6:00 AM 29 °F - 27 °F 90% 30.05 in 5 mi East 4.5 mph - -   Overcast
6:20 AM 30.2 °F 23.4 °F 26.6 °F 86% 30.01 in 5.0 mi East 6.9 mph - N/A   Overcast
6:50 AM 30.2 °F 22.6 °F 26.6 °F 86% 30.01 in 5.0 mi East 8.1 mph - N/A   Mostly Cloudy
7:00 AM 29 °F - 27 °F 90% 30.06 in 5 mi East 6.7 mph - -   Mostly Cloudy
7:20 AM 30.2 °F 23.4 °F 28.4 °F 93% 30.01 in 3.7 mi East 6.9 mph - N/A   Mostly Cloudy
7:50 AM 30.2 °F 23.4 °F 28.4 °F 93% 30.04 in 3.1 mi East 6.9 mph - N/A   Mostly Cloudy
8:00 AM 30 °F - 27 °F 85% 30.06 in 3 mi East 6.7 mph - -   Mist
8:20 AM 30.2 °F 23.4 °F 28.4 °F 93% 30.04 in 3.7 mi ESE 6.9 mph - N/A   Mostly Cloudy
8:50 AM 30.2 °F 24.3 °F 28.4 °F 93% 30.04 in 3.7 mi ESE 5.8 mph - N/A   Mostly Cloudy
9:00 AM 31 °F - 28 °F 83% 30.07 in 4 mi East 4.5 mph - -   Mist
9:20 AM 32.0 °F 26.4 °F 28.4 °F 87% 30.04 in 3.7 mi ESE 5.8 mph - N/A   Mostly Cloudy
9:50 AM 32.0 °F 26.4 °F 28.4 °F 87% 30.06 in 4.3 mi ESE 5.8 mph - N/A   Mostly Cloudy
10:20 AM 32.0 °F 26.4 °F 28.4 °F 87% 30.06 in 4.3 mi ESE 5.8 mph - N/A   Mostly Cloudy
10:50 AM 33.8 °F 29.6 °F 28.4 °F 81% 30.06 in 4.3 mi SE 4.6 mph - N/A   Scattered Clouds
11:00 AM 33 °F - 29 °F 78% 30.09 in 4 mi East 4.5 mph - -   Mist
11:20 AM 35.6 °F 31.7 °F 30.2 °F 81% 30.06 in 5.0 mi ESE 4.6 mph - N/A   Scattered Clouds
11:50 AM 35.6 °F 29.9 °F 26.6 °F 70% 30.06 in 5.6 mi South 6.9 mph - N/A   Partly Cloudy
12:00 PM 36 °F - 28 °F 61% 30.10 in 6 mi ESE 4.5 mph - -   Partly Cloudy
12:20 PM 37.4 °F 31.4 °F 26.6 °F 65% 30.06 in 6.2 mi South 8.1 mph - N/A   Scattered Clouds
12:50 PM 37.4 °F 32.1 °F 26.6 °F 65% 30.06 in 6.2 mi South 6.9 mph - N/A   Scattered Clouds
1:00 PM 38 °F - 26 °F 50% 30.09 in 7 mi ESE 6.7 mph - -   Partly Cloudy
1:20 PM 37.4 °F 32.8 °F 26.6 °F 65% 30.06 in 6.2 mi South 5.8 mph - N/A   Scattered Clouds
1:50 PM 37.4 °F 32.8 °F 26.6 °F 65% 30.06 in 6.2 mi South 5.8 mph - N/A   Partly Cloudy
2:00 PM 38 °F - 27 °F 54% 30.09 in 7 mi East 6.7 mph - -   Scattered Clouds
2:20 PM 37.4 °F 33.8 °F 28.4 °F 70% 30.06 in 6.2 mi SSW 4.6 mph - N/A   Partly Cloudy
2:50 PM 37.4 °F 33.8 °F 30.2 °F 75% 30.06 in 6.2 mi WSW 4.6 mph - N/A   Partly Cloudy
3:00 PM 38 °F - 29 °F 60% 30.09 in 9 mi NE 6.7 mph - -   Scattered Clouds
3:20 PM 37.4 °F 33.8 °F 28.4 °F 70% 30.06 in 6.2 mi South 4.6 mph - N/A   Partly Cloudy
3:50 PM 37.4 °F 32.8 °F 28.4 °F 70% 30.06 in 6.2 mi ENE 5.8 mph - N/A   Partly Cloudy
4:20 PM 35.6 °F 29.9 °F 28.4 °F 75% 30.06 in - East 6.9 mph - N/A   Clear
4:50 PM 35.6 °F 30.7 °F 28.4 °F 75% 30.09 in - East 5.8 mph - N/A   Clear
5:00 PM 35 °F - 28 °F 68% 30.12 in 9 mi East 2.2 mph - -   Scattered Clouds
5:20 PM 33.8 °F 29.6 °F 26.6 °F 75% 30.09 in - East 4.6 mph - N/A   Clear
5:50 PM 30.2 °F 24.3 °F 26.6 °F 86% 30.09 in - East 5.8 mph - N/A   Clear
6:00 PM 31 °F - 27 °F 80% 30.13 in 6 mi ESE 4.5 mph - -   Scattered Clouds
6:20 PM 30.2 °F 25.4 °F 26.6 °F 86% 30.12 in - ESE 4.6 mph - N/A   Clear
6:50 PM 28.4 °F 22.2 °F 24.8 °F 86% 30.12 in - SE 5.8 mph - N/A   Clear
7:00 PM 29 °F - 25 °F 78% 30.16 in 6 mi ESE 4.5 mph - -   Scattered Clouds
7:20 PM 28.4 °F 22.2 °F 26.6 °F 93% 30.12 in - SE 5.8 mph - N/A   Clear
7:50 PM 32.0 °F 26.4 °F 28.4 °F 87% 30.12 in - SSE 5.8 mph - N/A   Clear
8:20 PM 32.0 °F 26.4 °F 28.4 °F 87% 30.12 in - South 5.8 mph - N/A   Clear
8:50 PM 32.0 °F 25.6 °F 28.4 °F 87% 30.12 in - SSW 6.9 mph - N/A   Clear
9:00 PM 32 °F - 27 °F 76% 30.17 in 6 mi SSW 4.5 mph - -   Mostly Cloudy
9:20 PM 32.0 °F 26.4 °F 28.4 °F 87% 30.12 in - SSW 5.8 mph - N/A   Clear
9:50 PM 32.0 °F 27.5 °F 26.6 °F 80% 30.15 in - WSW 4.6 mph - N/A   Clear
10:20 PM 32.0 °F 27.5 °F 26.6 °F 80% 30.15 in 5.0 mi SW 4.6 mph - N/A   Mostly Cloudy
10:50 PM 32.0 °F 28.7 °F 28.4 °F 87% 30.15 in 5.0 mi SSE 3.5 mph - N/A   Mostly Cloudy
11:00 PM 31 °F - 28 °F 81% 30.18 in 5 mi South 2.2 mph - -   Partly Cloudy
11:20 PM 32.0 °F 27.5 °F 28.4 °F 87% 30.15 in 5.0 mi South 4.6 mph - N/A   Mostly Cloudy
11:50 PM 32.0 °F 28.7 °F 28.4 °F 87% 30.15 in 5.0 mi South 3.5 mph - N/A   Mostly Cloudy